Regional Weather Roundup
Issued by NWS Cleveland, OH

Home | Current Version | Previous Version | Text Only | Print | Product List | Glossary On
Versions: 1 2 3 4 5 6 7 8 9 10 11 12 13 14 15 16 17 18 19 20 21 22 23 24 25 26 27 28 29 30 31 32 33 34 35 36 37 38 39 40 41 42 43 44 45 46 47 48 49 50
000
ASUS41 KCLE 022012
RWRCLE
OHIO REGIONAL WEATHER ROUNDUP
NATIONAL WEATHER SERVICE WILMINGTON, OH
300 PM EST FRI DEC 02 2016

NOTE: "FAIR" INDICATES FEW OR NO CLOUDS BELOW 12,000 FEET WITH NO
SIGNIFICANT WEATHER AND/OR OBSTRUCTIONS TO VISIBILITY.

OHZ001>008-015>018-024>027-034-035-043-044-022100-
   NORTHWEST OHIO

CITY           SKY/WX    TMP DP  RH WIND       PRES   REMARKS
DEFIANCE       CLOUDY    41  31  67 W6        30.14R
FINDLAY        CLOUDY    41  31  67 W18       30.12R
TOLEDO EXPRESS CLOUDY    39  33  79 W14       30.11R
TOLEDO EXEC    CLOUDY    39  37  92 NW9       30.12R
LIMA           CLOUDY    39  32  76 W15       30.14R
$$

OHZ009>014-019>023-028>033-038-089-022100-
   NORTHEAST OHIO

CITY           SKY/WX    TMP DP  RH WIND       PRES   REMARKS
CLE-HOPKINS    CLOUDY    39  34  82 W13       30.09R
CLE-LAKEFRONT  CLOUDY    41  36  82 W17G25    30.06R
CUY CO. ARPT   CLOUDY    41  36  81 W12G21    30.05R
LORAIN-ELYRIA  LGT RAIN  37  32  82 NW14      30.09R
ASHTABULA      HVY RAIN  37  35  92 NW13G23   30.03R FOG
AKRON-CANTON   CLOUDY    39  29  67 W16G24    30.07R
WOOSTER        CLOUDY    38  30  73 W16       30.09R
MANSFIELD      CLOUDY    38  31  76 W12       30.09R
YOUNGSTOWN     CLOUDY    38  30  73 W15G21    30.03R
$$

OHZ042-051>053-060>062-070>072-077>081-022100-
  SOUTHWEST OHIO

CITY           SKY/WX    TMP DP  RH WIND       PRES   REMARKS
CINC-COVINGTON CLOUDY    39  29  67 W10       30.20R
CINC-LUNKEN    CLOUDY    41  32  70 W8        30.22S
HAMILTON       CLOUDY    42  30  62 W8        30.21S
DAYTON         CLOUDY    38  30  73 W14       30.18S
WRIGHT-PAT AFB CLOUDY    39  31  72 W12       30.18R
DAYTON GENERAL CLOUDY    39  29  67 W12       30.18R
WILMINGTON     CLOUDY    38  30  73 W13       30.18R
$$

OHZ036-037-039>041-045>050-054>059-063>069-073>076-082>088-022100-
  CENTRAL AND SOUTHEAST OHIO

CITY           SKY/WX    TMP DP  RH WIND       PRES   REMARKS
COLUMBUS       CLOUDY    38  32  79 W15       30.16R
OSU AIRPORT    CLOUDY    38  33  82 W9        30.15R
BOLTON FIELD   CLOUDY    37  32  81 W9        30.17R
RICKENBACK AFB CLOUDY    38  31  76 W13G20    30.17R
NEWARK         LGT RAIN  37  31  78 W8        30.14R
MARION         CLOUDY    39  30  70 W17       30.13R
LANCASTER      CLOUDY    39  31  72 W9        30.16R
ZANESVILLE     CLOUDY    38  31  76 W8        30.14R
NEW PHILLY     CLOUDY    39  30  70 W9        30.11R
$$



USA.gov is the U.S. government's official web portal to all federal, state and local government web resources and services.